This demonstration page uses our WeatherBlox Daily Observations layout. Learn more.

Left ArrowRight Arrow

Hourly Observations for November 29, 2022

Temp ( °F °C ) Dew Point ( °F °C ) Humidity (%) Winds ( mph kmh ) Pressure ( in mb ) Visibility ( mi km ) Precip ( " mm )
12:15 am 00:15 Clear 37 3 34 1 87 87 Calm 30.16 1021 10 16 0.00 0.00
12:35 am 00:35 Clear 36 2 34 1 93 93 Calm 30.16 1021 10 16 0.00 0.00
12:55 am 00:55 Clear 34 1 32 0 93 93 W 3 6 30.18 1022 10 16 0.00 0.00
1:15 am 01:15 Partly Cloudy 34 1 34 1 100 100 Calm 30.18 1022 10 16 0.00 0.00
1:35 am 01:35 Mostly Cloudy 36 2 34 1 93 93 ESE 3 6 30.19 1022 10 16 0.00 0.00
1:55 am 01:55 Cloudy 34 1 32 0 93 93 Calm 30.19 1022 10 16 0.00 0.00
2:15 am 02:15 Mostly Cloudy 34 1 32 0 93 93 Calm 30.19 1022 10 16 0.00 0.00
2:35 am 02:35 Cloudy 36 2 34 1 93 93 Calm 30.19 1022 10 16 0.00 0.00
2:55 am 02:55 Mostly Cloudy 36 2 34 1 93 93 SW 3 6 30.18 1022 10 16 0.00 0.00
3:15 am 03:15 Mostly Cloudy 34 1 32 0 93 93 Calm 30.18 1022 10 16 0.00 0.00
3:35 am 03:35 Cloudy 34 1 34 1 100 100 Calm 30.19 1022 10 16 0.00 0.00
3:55 am 03:55 Cloudy 36 2 34 1 93 93 E 3 6 30.19 1022 10 16 0.00 0.00
4:15 am 04:15 Cloudy 36 2 34 1 93 93 Calm 30.20 1023 10 16 0.00 0.00
4:35 am 04:35 Cloudy 36 2 34 1 93 93 Calm 30.21 1023 10 16 0.00 0.00
4:55 am 04:55 Cloudy 36 2 34 1 93 93 Calm 30.22 1023 10 16 0.00 0.00
5:15 am 05:15 Cloudy 37 3 36 2 93 93 Calm 30.23 1024 10 16 0.00 0.00
5:35 am 05:35 Cloudy 37 3 36 2 93 93 Calm 30.24 1024 10 16 0.00 0.00
5:55 am 05:55 Cloudy 37 3 36 2 93 93 Calm 30.24 1024 10 16 0.00 0.00
6:15 am 06:15 Cloudy 37 3 36 2 93 93 Calm 30.25 1024 10 16 0.00 0.00
6:35 am 06:35 Cloudy 37 3 36 2 93 93 Calm 30.25 1024 10 16 0.00 0.00
6:55 am 06:55 Cloudy 39 4 36 2 87 87 Calm 30.25 1025 10 16 0.00 0.00
7:15 am 07:15 Cloudy 39 4 37 3 93 93 Calm 30.27 1025 10 16 0.00 0.00
7:35 am 07:35 Cloudy 41 5 37 3 87 87 Calm 30.27 1025 10 16 0.00 0.00
7:55 am 07:55 Cloudy 41 5 37 3 87 87 Calm 30.28 1025 10 16 0.00 0.00
8:15 am 08:15 Cloudy 41 5 37 3 87 87 Calm 30.29 1026 10 16 0.00 0.00
8:35 am 08:35 Cloudy 43 6 37 3 81 81 Calm 30.29 1026 10 16 0.00 0.00
8:55 am 08:55 Cloudy 41 5 37 3 87 87 Calm 30.30 1026 10 16 0.00 0.00
9:15 am 09:15 Cloudy 43 6 37 3 81 81 Calm 30.31 1027 10 16 0.00 0.00
9:35 am 09:35 Cloudy 45 7 37 3 76 76 Calm 30.31 1026 10 16 0.00 0.00
9:55 am 09:55 Cloudy 46 8 37 3 71 71 S 3 6 30.32 1027 10 16 0.00 0.00
10:15 am 10:15 Cloudy 46 8 37 3 71 71 S 5 7 30.32 1027 10 16 0.00 0.00
10:35 am 10:35 Cloudy 46 8 36 2 66 66 S 10 17 30.32 1027 10 16 0.00 0.00
10:55 am 10:55 Cloudy 46 8 36 2 66 66 SSE 8 13 30.32 1027 10 16 0.00 0.00
11:15 am 11:15 Cloudy 48 9 36 2 61 61 SSE 9 15 30.31 1026 10 16 0.00 0.00
11:35 am 11:35 Cloudy 50 10 37 3 62 62 S 8 13 30.30 1026 10 16 0.00 0.00
11:55 am 11:55 Cloudy 48 9 36 2 61 61 S 9 15 30.29 1026 10 16 0.00 0.00
12:15 pm 12:15 Cloudy 48 9 36 2 61 61 S 8 13 30.28 1025 10 16 0.00 0.00
12:35 pm 12:35 Cloudy 50 10 36 2 57 57 S 13 20 30.27 1025 10 16 0.00 0.00
12:55 pm 12:55 Mostly Cloudy 50 10 36 2 57 57 S 12 19 30.27 1025 10 16 0.00 0.00
1:15 pm 13:15 Partly Cloudy 50 10 36 2 57 57 S 8 13 30.25 1024 10 16 0.00 0.00
1:35 pm 13:35 Sunny 50 10 36 2 57 57 SSE 12 19 30.25 1024 10 16 0.00 0.00
1:55 pm 13:55 Sunny 50 10 36 2 57 57 S 10 17 30.24 1024 10 16 0.00 0.00
2:15 pm 14:15 Sunny 50 10 37 3 62 62 S 8 13 30.24 1024 10 16 0.00 0.00
2:35 pm 14:35 Sunny 52 11 37 3 58 58 S 8 13 30.24 1024 10 16 0.00 0.00
2:55 pm 14:55 Sunny 52 11 37 3 58 58 SSE 7 11 30.23 1024 10 16 0.00 0.00
3:15 pm 15:15 Sunny 52 11 37 3 58 58 S 9 15 30.23 1024 10 16 0.00 0.00
3:35 pm 15:35 Sunny 52 11 37 3 58 58 SSE 9 15 30.21 1023 10 16 0.00 0.00
3:55 pm 15:55 Sunny 50 10 37 3 62 62 SE 8 13 30.22 1023 10 16 0.00 0.00
4:15 pm 16:15 Sunny 50 10 37 3 62 62 SSE 7 11 30.22 1023 10 16 0.00 0.00
4:35 pm 16:35 Sunny 50 10 37 3 62 62 SE 7 11 30.22 1023 10 16 0.00 0.00
4:55 pm 16:55 Clear 50 10 37 3 62 62 SE 7 11 30.22 1023 10 16 0.00 0.00
5:15 pm 17:15 Clear 50 10 37 3 62 62 SSE 7 11 30.23 1024 10 16 0.00 0.00
5:35 pm 17:35 Clear 48 9 37 3 66 66 SSE 6 9 30.23 1024 10 16 0.00 0.00
5:55 pm 17:55 Clear 48 9 37 3 66 66 SSE 7 11 30.24 1024 10 16 0.00 0.00
6:15 pm 18:15 Clear 46 8 37 3 71 71 SE 6 9 30.23 1024 10 16 0.00 0.00
6:35 pm 18:35 Clear 48 9 37 3 66 66 SSE 6 9 30.24 1024 10 16 0.00 0.00
6:55 pm 18:55 Clear 46 8 37 3 71 71 SSE 6 9 30.24 1024 10 16 0.00 0.00
7:15 pm 19:15 Clear 46 8 39 4 76 76 SSE 8 13 30.24 1024 10 16 0.00 0.00
7:35 pm 19:35 Clear 46 8 39 4 76 76 SSE 6 9 30.23 1024 10 16 0.00 0.00
7:55 pm 19:55 Clear 46 8 39 4 76 76 SSE 7 11 30.22 1023 10 16 0.00 0.00
8:15 pm 20:15 Clear 46 8 37 3 71 71 SSE 8 13 30.22 1023 10 16 0.00 0.00
8:35 pm 20:35 Clear 46 8 37 3 71 71 SSE 5 7 30.22 1023 10 16 0.00 0.00
8:55 pm 20:55 Partly Cloudy 46 8 37 3 71 71 SSE 6 9 30.21 1023 10 16 0.00 0.00
9:15 pm 21:15 Cloudy 46 8 37 3 71 71 SSE 3 6 30.22 1023 10 16 0.00 0.00
9:35 pm 21:35 Cloudy 46 8 37 3 71 71 S 7 11 30.22 1023 10 16 0.00 0.00
9:55 pm 21:55 Mostly Cloudy 46 8 37 3 71 71 SSE 6 9 30.22 1023 10 16 0.00 0.00
10:15 pm 22:15 Partly Cloudy 45 7 37 3 76 76 SSE 6 9 30.21 1023 10 16 0.00 0.00
10:35 pm 22:35 Clear 45 7 37 3 76 76 SSE 7 11 30.19 1022 10 16 0.00 0.00
10:55 pm 22:55 Clear 45 7 37 3 76 76 SSE 8 13 30.19 1022 10 16 0.00 0.00
11:15 pm 23:15 Clear 46 8 37 3 71 71 SSE 9 15 30.19 1022 10 16 0.00 0.00
11:35 pm 23:35 Partly Cloudy 45 7 37 3 76 76 S 7 11 30.19 1022 10 16 0.00 0.00
11:55 pm 23:55 Partly Cloudy 45 7 37 3 76 76 SSE 7 11 30.16 1021 10 16 0.00 0.00

Powered by AerisWeather